Date String (YYYY-MM-DD hh:mm:ss) UTC,Instrument flags,Ambient pressure (hPa),Sample flow (lpm),Bypass flow (lpm),Sample temperature (°C),Ambient temperature (°C),ASC tube jacket temperature (°C),LED temperature (°C),Box temperature (°C),Sample RH (%),Span deviation,Mass concentration (μg/m³),Mass concentration (μg/m³),Mass concentration (μg/m³)
DateTimeUTC,F1_M11,P_M11,Q1_M11,Q2_M11,T1_M11,T2_M11,T3_M11,T4_M11,T5_M11,U1_M11,ZSPAN_M11,X0_M11,X2_M11,X1_M11
2022-10-02 17:00:00,,0829.8,5.00,0.00,29.2,27.8,00.0,38.0,31.1,27.1,0000.0,0008.21,0004.98,0004.47
2022-10-02 17:01:00,,0829.9,5.01,0.00,29.3,27.8,00.0,38.0,31.1,26.6,0000.0,0008.16,0004.91,0004.40
2022-10-02 17:02:00,,0829.8,5.00,0.00,29.3,27.8,00.0,38.0,31.1,26.2,0000.0,0008.03,0004.80,0004.32
2022-10-02 17:03:00,,0829.9,4.99,0.00,29.3,27.9,00.0,38.0,31.1,26.7,0000.0,0007.87,0004.70,0004.24
2022-10-02 17:04:00,,0829.9,5.00,0.00,29.3,27.9,00.0,38.0,31.1,26.2,0000.0,0007.95,0004.58,0004.15
2022-10-02 17:05:00,,0829.9,5.00,0.00,29.3,28.0,00.0,38.0,31.1,25.7,0000.0,0008.03,0004.50,0004.06
2022-10-02 17:06:00,,0829.9,5.00,0.00,29.3,28.0,00.0,38.0,31.2,25.7,0000.0,0007.94,0004.43,0003.97
2022-10-02 17:07:00,,0829.9,5.00,0.00,29.3,28.0,00.0,38.1,31.2,26.3,0000.0,0007.83,0004.35,0003.90
2022-10-02 17:08:00,,0829.8,4.99,0.00,29.3,28.0,00.0,38.1,31.2,26.4,0000.0,0007.79,0004.29,0003.84
2022-10-02 17:09:00,,0829.8,5.01,0.00,29.4,28.0,00.0,38.1,31.2,25.5,0000.0,0007.84,0004.26,0003.79
2022-10-02 17:10:00,,0829.9,4.98,0.00,29.4,28.1,00.0,38.1,31.2,24.9,0000.0,0007.85,0004.20,0003.73
2022-10-02 17:11:00,,0829.8,5.00,0.00,29.4,28.1,00.0,38.1,31.2,25.1,0000.0,0007.78,0004.14,0003.67
2022-10-02 17:12:00,,0829.8,5.01,0.00,29.4,28.1,00.0,38.1,31.3,25.5,0000.0,0007.72,0004.08,0003.62
2022-10-02 17:13:00,,0829.8,4.99,0.00,29.4,28.1,00.0,38.1,31.3,25.3,0000.0,0007.68,0004.04,0003.57
2022-10-02 17:14:00,,0829.9,5.00,0.00,29.4,28.1,00.0,38.1,31.3,26.6,0000.0,0007.69,0004.00,0003.55
2022-10-02 17:15:00,,0829.8,4.99,0.00,29.4,28.1,00.0,38.1,31.3,26.8,0000.0,0007.65,0004.01,0003.55
2022-10-02 17:16:00,,0829.8,5.01,0.00,29.4,28.1,00.0,38.1,31.3,25.4,0000.0,0007.35,0003.99,0003.54
2022-10-02 17:17:00,,0829.8,4.99,0.00,29.4,28.1,00.0,38.1,31.3,25.5,0000.0,0007.20,0003.98,0003.55
2022-10-02 17:18:00,,0829.8,5.01,0.00,29.4,28.1,00.0,38.1,31.3,25.8,0000.0,0007.12,0003.98,0003.56
2022-10-02 17:19:00,,0829.7,5.00,0.00,29.5,28.2,00.0,38.2,31.3,25.7,0000.0,0007.15,0003.99,0003.57
2022-10-02 17:20:00,,0829.8,4.99,0.00,29.5,28.2,00.0,38.2,31.3,25.7,0000.0,0007.06,0003.96,0003.57
2022-10-02 17:21:00,,0829.9,5.01,0.00,29.5,28.2,00.0,38.2,31.3,26.3,0000.0,0007.26,0003.95,0003.59
2022-10-02 17:22:00,,0829.9,4.98,0.00,29.5,28.2,00.0,38.2,31.4,25.7,0000.0,0007.41,0003.97,0003.61
2022-10-02 17:23:00,,0830.0,5.01,0.00,29.5,28.2,00.0,38.2,31.4,26.2,0000.0,0007.45,0003.98,0003.62
2022-10-02 17:24:00,,0829.9,5.01,0.00,29.5,28.2,00.0,38.2,31.4,27.5,0000.0,0007.48,0004.04,0003.67
2022-10-02 17:25:00,,0829.9,4.99,0.00,29.5,28.1,00.0,38.2,31.3,26.9,0000.0,0007.48,0004.08,0003.72
2022-10-02 17:26:00,,0829.8,5.01,0.00,29.5,28.0,00.0,38.2,31.3,26.1,0000.0,0007.42,0004.08,0003.71
2022-10-02 17:27:00,,0829.8,5.01,0.00,29.5,28.1,00.0,38.2,31.4,26.4,0000.0,0007.31,0004.07,0003.73
2022-10-02 17:28:00,,0829.8,4.99,0.00,29.5,28.1,00.0,38.2,31.4,26.8,0000.0,0007.41,0004.11,0003.74
2022-10-02 17:29:00,,0829.9,5.00,0.00,29.5,28.2,00.0,38.2,31.4,26.5,0000.0,0007.59,0004.17,0003.76
2022-10-02 17:30:00,,0829.9,5.00,0.00,29.5,28.2,00.0,38.2,31.4,27.2,0000.0,0008.12,0004.18,0003.77
2022-10-02 17:31:00,,0829.8,5.00,0.00,29.5,28.1,00.0,38.3,31.4,27.5,0000.0,0008.37,0004.22,0003.81
2022-10-02 17:32:00,,0829.8,4.99,0.00,29.5,28.1,00.0,38.3,31.4,27.5,0000.0,0008.30,0004.26,0003.84
2022-10-02 17:33:00,,0829.8,5.01,0.00,29.5,28.2,00.0,38.3,31.4,27.1,0000.0,0008.14,0004.30,0003.87
2022-10-02 17:34:00,,0829.8,5.00,0.00,29.5,28.2,00.0,38.3,31.4,26.6,0000.0,0008.18,0004.33,0003.90
2022-10-02 17:35:00,,0829.8,5.01,0.00,29.5,28.1,00.0,38.3,31.4,26.7,0000.0,0008.14,0004.32,0003.90
2022-10-02 17:36:00,,0829.7,5.00,0.00,29.5,28.1,00.0,38.3,31.4,27.5,0000.0,0008.56,0004.36,0003.91
2022-10-02 17:37:00,,0829.7,5.00,0.00,29.5,28.0,00.0,38.3,31.4,27.6,0000.0,0008.66,0004.40,0003.96
2022-10-02 17:38:00,,0829.6,4.99,0.00,29.5,28.0,00.0,38.3,31.4,27.9,0000.0,0008.75,0004.46,0004.01
2022-10-02 17:39:00,,0829.9,5.01,0.00,29.5,28.0,00.0,38.3,31.4,28.3,0000.0,0008.81,0004.53,0004.07
2022-10-02 17:40:00,,0829.7,4.98,0.00,29.5,28.0,00.0,38.3,31.4,28.7,0000.0,0008.88,0004.61,0004.14
2022-10-02 17:41:00,,0829.8,5.01,0.00,29.5,28.1,00.0,38.3,31.4,28.4,0000.0,0008.42,0004.69,0004.22
2022-10-02 17:42:00,,0829.7,5.01,0.00,29.5,28.1,00.0,38.3,31.4,28.5,0000.0,0008.23,0004.74,0004.28
2022-10-02 17:43:00,,0829.7,5.00,0.00,29.5,28.1,00.0,38.3,31.4,28.5,0000.0,0008.33,0004.81,0004.34
2022-10-02 17:44:00,,0829.6,5.00,0.00,29.5,28.2,00.0,38.3,31.4,28.7,0000.0,0008.33,0004.85,0004.42
2022-10-02 17:45:00,,0829.6,5.01,0.00,29.6,28.2,00.0,38.3,31.4,28.4,0000.0,0008.39,0004.93,0004.51
2022-10-02 17:46:00,,0829.6,4.99,0.00,29.6,28.2,00.0,38.3,31.4,28.3,-001.5,0008.54,0005.06,0004.62
2022-10-02 17:47:00,,0829.6,5.01,0.00,29.6,28.2,00.0,38.3,31.4,28.4,-002.4,0008.29,0005.12,0004.70
2022-10-02 17:48:00,,0829.6,5.01,0.00,29.6,28.3,00.0,38.3,31.4,28.6,-002.7,0008.35,0005.20,0004.76
2022-10-02 17:49:00,,0829.7,4.99,0.00,29.6,28.3,00.0,38.3,31.4,28.8,-002.7,0008.55,0005.30,0004.83
2022-10-02 17:50:00,,0829.6,5.01,0.00,29.6,28.3,00.0,38.3,31.5,28.5,-002.5,0008.60,0005.33,0004.88
2022-10-02 17:51:00,,0829.8,4.99,0.00,29.6,28.3,00.0,38.3,31.5,28.4,-002.4,0008.52,0005.33,0004.92
2022-10-02 17:52:00,,0829.8,5.00,0.00,29.6,28.3,00.0,38.3,31.5,28.3,-002.2,0008.45,0005.32,0004.93
2022-10-02 17:53:00,,0829.6,5.01,0.00,29.6,28.3,00.0,38.3,31.5,28.8,-002.2,0008.41,0005.33,0004.95
2022-10-02 17:54:00,,0829.7,4.99,0.00,29.6,28.3,00.0,38.3,31.5,28.6,-002.1,0008.45,0005.38,0004.98
2022-10-02 17:55:00,,0829.6,5.01,0.00,29.7,28.3,00.0,38.3,31.5,28.3,-002.1,0009.07,0005.41,0005.00
2022-10-02 17:56:00,,0829.7,4.99,0.00,29.7,28.4,00.0,38.4,31.5,28.3,-002.2,0009.16,0005.45,0005.00
2022-10-02 17:57:00,,0829.8,5.01,0.00,29.7,28.3,00.0,38.4,31.5,28.5,-002.4,0009.21,0005.44,0005.01
2022-10-02 17:58:00,,0829.7,5.01,0.00,29.7,28.3,00.0,38.4,31.5,28.7,-002.5,0009.29,0005.49,0005.03
2022-10-02 17:59:00,,0829.6,4.99,0.00,29.7,28.3,00.0,38.4,31.5,28.7,-001.7,0009.41,0005.51,0005.04
